This is the latest recevied weather packets stored in our database for station/object WA7CUG. If no packets are shown the sender has not sent any weather packets the latest 10 day(s).
| Time | Temp. | Humidity | Pressure | Rain* | Wind** | Luminosity | Snow |
|---|---|---|---|---|---|---|---|
| 1778025826 | 29.44° C | 29% | 1009.4 hPa | 0 mm | - | 391 W/m² | - |
| 1778025522 | 29.44° C | 30% | 1009.6 hPa | 0 mm | - | 404 W/m² | - |
| 1778025220 | 28.89° C | 26% | 1009.6 hPa | 0 mm | - | 417 W/m² | - |
| 1778024917 | 29.44° C | 27% | 1009.6 hPa | 0 mm | - | 430 W/m² | - |
| 1778024615 | 28.89° C | 28% | 1009.8 hPa | 0 mm | - | 443 W/m² | - |
| 1778024311 | 28.89° C | 28% | 1009.8 hPa | 0 mm | - | 452 W/m² | - |
| 1778024009 | 29.44° C | 29% | 1009.9 hPa | 0 mm | - | 465 W/m² | - |
| 1778023706 | 28.89° C | 26% | 1009.9 hPa | 0 mm | - | 476 W/m² | - |
| 1778023404 | 28.89° C | 28% | 1009.7 hPa | 0 mm | - | 489 W/m² | - |
| 1778023100 | 28.89° C | 29% | 1010 hPa | 0 mm | - | 499 W/m² | - |
| 1778022799 | 28.89° C | 27% | 1010.3 hPa | 0 mm | - | 510 W/m² | - |
| 1778022496 | 28.89° C | 28% | 1010.2 hPa | 0 mm | - | 521 W/m² | - |
| 1778022193 | 29.44° C | 26% | 1010.2 hPa | 0 mm | - | 526 W/m² | - |
| 1778021890 | 30.56° C | 25% | 1010.2 hPa | 0 mm | - | 538 W/m² | - |
| 1778021587 | 31.11° C | 27% | 1010.5 hPa | 0 mm | - | 548 W/m² | - |
| 1778021282 | 31.11° C | 26% | 1010.4 hPa | 0 mm | - | 559 W/m² | - |
| 1778020980 | 30° C | 32% | 1010.7 hPa | 0 mm | - | 567 W/m² | - |
| 1778020677 | 30° C | 27% | 1010.7 hPa | 0 mm | - | 576 W/m² | - |
| 1778020374 | 29.44° C | 27% | 1010.6 hPa | 0 mm | - | 585 W/m² | - |
| 1778020069 | 29.44° C | 25% | 1010.6 hPa | 0 mm | - | 592 W/m² | - |
| 1778019766 | 28.33° C | 26% | 1010.7 hPa | 0 mm | - | 601 W/m² | - |
| 1778019463 | 28.33° C | 28% | 1010.8 hPa | 0 mm | - | 612 W/m² | - |
| 1778019160 | 28.33° C | 27% | 1010.7 hPa | 0 mm | - | 618 W/m² | - |
| 1778018856 | 27.78° C | 28% | 1011 hPa | 0 mm | - | 626 W/m² | - |
| 1778018554 | 27.78° C | 27% | 1011.1 hPa | 0 mm | - | 631 W/m² | - |
* Rain latest hour (hover to see other rain measurements)
** Current wind speed in m/s (hover to see current wind gust speed)